AUA214 LOWW-EDDF

Flight info

Callsign AUA214
Flight time 1h 21m
Altitude 30000
Route LUGEM2B LUGEM DCT SUBEN T161 DEBHI DEBHI1B
Aircraft A320/M-SDE3FGHIRWY/LB1

Departure

Time 2026-05-07 15:05
Airport Vienna International Airport (LOWW)

Arrival

Time 2026-05-07 16:27
Airport Frankfurt Main Airport (EDDF)
Time Latitude Longitude Altitude Speed Heading
2026-05-07 14:26 48.11897 16.56767 614 ft 0 kts 206°
2026-05-07 14:57 48.11898 16.56768 609 ft 2 kts 206°
2026-05-07 14:57 48.11921 16.56783 613 ft 4 kts 198°
2026-05-07 14:57 48.11947 16.56792 620 ft 4 kts 180°
2026-05-07 14:58 48.11970 16.56784 620 ft 4 kts 128°
2026-05-07 14:58 48.11976 16.56772 623 ft 1 kts 116°
2026-05-07 14:58 48.11976 16.56771 623 ft 0 kts 116°
2026-05-07 15:00 48.11975 16.56775 609 ft 2 kts 116°
2026-05-07 15:01 48.11964 16.56806 609 ft 5 kts 116°
2026-05-07 15:01 48.11944 16.56870 617 ft 7 kts 116°
2026-05-07 15:01 48.11918 16.56947 623 ft 9 kts 116°
2026-05-07 15:01 48.11894 16.57023 613 ft 7 kts 116°
2026-05-07 15:02 48.11864 16.57115 609 ft 11 kts 116°
2026-05-07 15:02 48.11853 16.57215 609 ft 9 kts 103°
2026-05-07 15:02 48.11823 16.57312 614 ft 11 kts 116°
2026-05-07 15:02 48.11762 16.57365 616 ft 13 kts 164°
2026-05-07 15:03 48.11645 16.57414 618 ft 20 kts 164°
2026-05-07 15:03 48.11512 16.57462 614 ft 19 kts 178°
2026-05-07 15:03 48.11388 16.57385 614 ft 20 kts 205°
2026-05-07 15:03 48.11265 16.57296 617 ft 20 kts 206°
2026-05-07 15:04 48.11181 16.57235 619 ft 21 kts 206°
2026-05-07 15:04 48.11058 16.57106 613 ft 12 kts 273°
2026-05-07 15:04 48.11107 16.56942 621 ft 32 kts 296°
2026-05-07 15:04 48.11315 16.56301 623 ft 101 kts 296°
2026-05-07 15:05 48.11702 16.55114 609 ft 151 kts 296°
2026-05-07 15:05 48.12204 16.53571 992 ft 162 kts 287°
2026-05-07 15:05 48.12340 16.52478 1371 ft 165 kts 263°
2026-05-07 15:05 48.12189 16.50776 1912 ft 171 kts 255°
2026-05-07 15:06 48.11939 16.48910 2212 ft 197 kts 257°
2026-05-07 15:06 48.11619 16.46780 2592 ft 221 kts 251°
2026-05-07 15:06 48.11168 16.44444 3023 ft 245 kts 253°
2026-05-07 15:06 48.10672 16.41892 3587 ft 263 kts 253°
2026-05-07 15:07 48.10171 16.39235 4456 ft 267 kts 255°
2026-05-07 15:07 48.09763 16.36524 5382 ft 269 kts 268°
2026-05-07 15:07 48.09764 16.33719 6279 ft 272 kts 271°
2026-05-07 15:07 48.09825 16.30884 7163 ft 273 kts 272°
2026-05-07 15:08 48.09908 16.28035 8090 ft 274 kts 272°
2026-05-07 15:08 48.09974 16.25157 8933 ft 280 kts 271°
2026-05-07 15:08 48.10033 16.22229 9825 ft 282 kts 271°
2026-05-07 15:08 48.10181 16.19287 10573 ft 290 kts 277°
2026-05-07 15:09 48.10468 16.16177 10814 ft 313 kts 277°
2026-05-07 15:09 48.10776 16.12857 11258 ft 327 kts 277°
2026-05-07 15:09 48.11090 16.09452 11987 ft 332 kts 277°
2026-05-07 15:09 48.11407 16.06010 12722 ft 336 kts 276°
2026-05-07 15:10 48.11718 16.02580 13435 ft 339 kts 276°
2026-05-07 15:10 48.12033 15.99070 14111 ft 342 kts 276°
2026-05-07 15:10 48.12348 15.95531 14770 ft 344 kts 276°
2026-05-07 15:10 48.12663 15.91970 15422 ft 346 kts 275°
2026-05-07 15:11 48.12981 15.88383 16063 ft 349 kts 275°
2026-05-07 15:11 48.13301 15.84754 16686 ft 352 kts 275°
2026-05-07 15:11 48.13622 15.81109 17302 ft 355 kts 275°
2026-05-07 15:11 48.13945 15.77428 17904 ft 358 kts 274°
2026-05-07 15:12 48.14267 15.73714 18464 ft 361 kts 274°
2026-05-07 15:12 48.14591 15.69962 18973 ft 364 kts 274°
2026-05-07 15:12 48.14916 15.66186 19489 ft 367 kts 274°
2026-05-07 15:12 48.15245 15.62379 20005 ft 370 kts 274°
2026-05-07 15:13 48.15577 15.58546 20518 ft 373 kts 273°
2026-05-07 15:13 48.15909 15.54683 21027 ft 376 kts 273°
2026-05-07 15:13 48.16242 15.50786 21515 ft 378 kts 274°
2026-05-07 15:13 48.16578 15.46862 22009 ft 381 kts 273°
2026-05-07 15:14 48.16914 15.42913 22485 ft 384 kts 273°
2026-05-07 15:14 48.17253 15.38933 22957 ft 387 kts 274°
2026-05-07 15:14 48.17684 15.34928 23426 ft 391 kts 276°
2026-05-07 15:14 48.18217 15.30916 23821 ft 395 kts 277°
2026-05-07 15:15 48.18804 15.26887 23950 ft 395 kts 278°
2026-05-07 15:15 48.19399 15.22917 23982 ft 395 kts 278°
2026-05-07 15:15 48.19993 15.18900 23986 ft 395 kts 277°
2026-05-07 15:15 48.20567 15.14878 23986 ft 395 kts 277°
2026-05-07 15:16 48.21127 15.10840 23993 ft 394 kts 278°
2026-05-07 15:16 48.21673 15.06824 23985 ft 393 kts 278°
2026-05-07 15:16 48.22211 15.02803 23991 ft 393 kts 278°
2026-05-07 15:16 48.22745 14.98781 23985 ft 393 kts 278°
2026-05-07 15:17 48.23278 14.94761 23989 ft 393 kts 278°
2026-05-07 15:17 48.23813 14.90738 23989 ft 393 kts 278°
2026-05-07 15:17 48.24348 14.86721 23990 ft 393 kts 278°
2026-05-07 15:17 48.24882 14.82705 23991 ft 393 kts 278°
2026-05-07 15:18 48.25416 14.78683 23992 ft 393 kts 278°
2026-05-07 15:18 48.25948 14.74653 23992 ft 393 kts 278°
2026-05-07 15:18 48.26478 14.70632 24006 ft 392 kts 278°
2026-05-07 15:18 48.27006 14.66624 23999 ft 390 kts 278°
2026-05-07 15:19 48.27523 14.62686 23996 ft 390 kts 278°
2026-05-07 15:19 48.28052 14.58646 23998 ft 389 kts 278°
2026-05-07 15:19 48.28567 14.54709 24001 ft 389 kts 278°
2026-05-07 15:19 48.29086 14.50725 24002 ft 389 kts 278°
2026-05-07 15:20 48.29607 14.46701 24335 ft 392 kts 278°
2026-05-07 15:20 48.30126 14.42668 24749 ft 394 kts 277°
2026-05-07 15:20 48.30647 14.38612 25140 ft 396 kts 277°
2026-05-07 15:20 48.31173 14.34508 25530 ft 398 kts 277°
2026-05-07 15:21 48.31697 14.30410 25902 ft 401 kts 277°
2026-05-07 15:21 48.32223 14.26290 26304 ft 402 kts 277°
2026-05-07 15:21 48.32748 14.22160 26688 ft 404 kts 277°
2026-05-07 15:21 48.33268 14.18064 27044 ft 406 kts 277°
2026-05-07 15:22 48.33804 14.13834 27388 ft 408 kts 277°
2026-05-07 15:22 48.34330 14.09687 27732 ft 410 kts 277°
2026-05-07 15:22 48.34864 14.05461 27973 ft 412 kts 277°
2026-05-07 15:22 48.35396 14.01225 28009 ft 412 kts 277°
2026-05-07 15:23 48.36451 13.92755 28009 ft 412 kts 277°
2026-05-07 15:23 48.37498 13.84319 28012 ft 408 kts 277°
2026-05-07 15:24 48.38531 13.75946 28013 ft 406 kts 277°
2026-05-07 15:24 48.39550 13.67597 28016 ft 405 kts 277°
2026-05-07 15:25 48.40569 13.59245 28014 ft 405 kts 277°
2026-05-07 15:25 48.41578 13.50952 28017 ft 405 kts 277°
2026-05-07 15:26 48.42580 13.42580 28018 ft 406 kts 278°
2026-05-07 15:26 48.43629 13.34196 28012 ft 408 kts 283°
2026-05-07 15:27 48.45612 13.26206 28015 ft 410 kts 289°
2026-05-07 15:27 48.47734 13.18213 28026 ft 411 kts 289°
2026-05-07 15:28 48.49838 13.10214 28024 ft 410 kts 289°
2026-05-07 15:28 48.51930 13.02200 28011 ft 411 kts 290°
2026-05-07 15:29 48.54021 12.94179 28012 ft 411 kts 290°
2026-05-07 15:29 48.56108 12.86138 28028 ft 411 kts 290°
2026-05-07 15:30 48.58197 12.78096 28028 ft 411 kts 290°
2026-05-07 15:30 48.60283 12.70061 28033 ft 411 kts 290°
2026-05-07 15:31 48.62353 12.62032 28033 ft 410 kts 290°
2026-05-07 15:31 48.64401 12.54052 28025 ft 410 kts 289°
2026-05-07 15:32 48.66454 12.46018 28035 ft 410 kts 289°
2026-05-07 15:32 48.68506 12.37973 28036 ft 409 kts 289°
2026-05-07 15:33 48.70554 12.29927 28035 ft 409 kts 289°
2026-05-07 15:33 48.72585 12.21911 28030 ft 405 kts 290°
2026-05-07 15:34 48.74577 12.13948 28030 ft 403 kts 288°
2026-05-07 15:34 48.75709 12.05695 28039 ft 402 kts 279°
2026-05-07 15:35 48.76609 11.97325 28028 ft 403 kts 279°
2026-05-07 15:35 48.77517 11.88945 28029 ft 403 kts 279°
2026-05-07 15:36 48.78419 11.80563 28034 ft 402 kts 279°
2026-05-07 15:36 48.79305 11.72198 28036 ft 402 kts 279°
2026-05-07 15:37 48.80179 11.63827 28019 ft 402 kts 279°
2026-05-07 15:37 48.81048 11.55454 28033 ft 402 kts 279°
2026-05-07 15:38 48.81914 11.47090 28036 ft 401 kts 279°
2026-05-07 15:38 48.82771 11.38708 28026 ft 402 kts 279°
2026-05-07 15:39 48.83613 11.30380 28037 ft 402 kts 279°
2026-05-07 15:39 48.85372 11.22387 28020 ft 401 kts 299°
2026-05-07 15:40 48.88870 11.15811 28034 ft 403 kts 316°
2026-05-07 15:40 48.93011 11.10060 28045 ft 403 kts 316°
2026-05-07 15:41 48.97147 11.04293 28048 ft 403 kts 316°
2026-05-07 15:41 49.01281 10.98497 28048 ft 404 kts 316°
2026-05-07 15:42 49.05418 10.92672 28073 ft 404 kts 316°
2026-05-07 15:42 49.09504 10.86907 27876 ft 391 kts 316°
2026-05-07 15:43 49.11449 10.84167 27605 ft 380 kts 316°
2026-05-07 15:43 49.13367 10.81460 27352 ft 370 kts 316°
2026-05-07 15:43 49.15242 10.78806 27092 ft 365 kts 315°
2026-05-07 15:43 49.17099 10.76169 26824 ft 363 kts 315°
2026-05-07 15:44 49.18938 10.73553 26560 ft 361 kts 315°
2026-05-07 15:44 49.20759 10.70913 26306 ft 360 kts 314°
2026-05-07 15:44 49.22528 10.68199 26013 ft 358 kts 313°
2026-05-07 15:44 49.24258 10.65454 25764 ft 358 kts 312°
2026-05-07 15:45 49.25970 10.62703 25521 ft 358 kts 312°
2026-05-07 15:45 49.27692 10.59938 25271 ft 359 kts 313°
2026-05-07 15:45 49.29421 10.57176 25026 ft 359 kts 313°
2026-05-07 15:45 49.31128 10.54460 24781 ft 358 kts 313°
2026-05-07 15:46 49.34580 10.48990 24307 ft 356 kts 313°
2026-05-07 15:46 49.36242 10.46219 24004 ft 350 kts 307°
2026-05-07 15:46 49.37652 10.43182 23666 ft 350 kts 304°
2026-05-07 15:47 49.39048 10.40115 23270 ft 350 kts 304°
2026-05-07 15:47 49.40441 10.37062 22916 ft 348 kts 304°
2026-05-07 15:47 49.41830 10.34024 22558 ft 347 kts 304°
2026-05-07 15:47 49.43213 10.31001 22198 ft 344 kts 304°
2026-05-07 15:48 49.44583 10.28001 21850 ft 342 kts 304°
2026-05-07 15:48 49.45941 10.25017 21501 ft 340 kts 303°
2026-05-07 15:48 49.47289 10.22041 21153 ft 338 kts 303°
2026-05-07 15:48 49.48630 10.19081 20815 ft 336 kts 303°
2026-05-07 15:49 49.49964 10.16141 20465 ft 335 kts 303°
2026-05-07 15:49 49.51292 10.13212 20135 ft 333 kts 303°
2026-05-07 15:49 49.52614 10.10289 19795 ft 331 kts 303°
2026-05-07 15:49 49.53930 10.07376 19459 ft 332 kts 304°
2026-05-07 15:50 49.55245 10.04462 19121 ft 331 kts 304°
2026-05-07 15:50 49.56555 10.01554 18783 ft 329 kts 304°
2026-05-07 15:50 49.57857 9.98662 18450 ft 328 kts 304°
2026-05-07 15:50 49.59153 9.95783 18089 ft 326 kts 304°
2026-05-07 15:51 49.60443 9.92911 17750 ft 324 kts 304°
2026-05-07 15:51 49.61709 9.90088 17426 ft 324 kts 303°
2026-05-07 15:51 49.62985 9.87235 17096 ft 322 kts 303°
2026-05-07 15:51 49.64257 9.84387 16760 ft 321 kts 304°
2026-05-07 15:52 49.65519 9.81561 16439 ft 319 kts 304°
2026-05-07 15:52 49.66777 9.78745 16108 ft 318 kts 303°
2026-05-07 15:52 49.67625 9.76846 15792 ft 319 kts 304°
2026-05-07 15:52 49.68878 9.74042 15555 ft 316 kts 304°
2026-05-07 15:53 49.70109 9.71290 15255 ft 314 kts 304°
2026-05-07 15:53 49.71347 9.68512 14939 ft 313 kts 304°
2026-05-07 15:53 49.72578 9.65743 14621 ft 312 kts 304°
2026-05-07 15:53 49.73801 9.62983 14306 ft 310 kts 304°
2026-05-07 15:54 49.75021 9.60237 13998 ft 309 kts 304°
2026-05-07 15:54 49.76234 9.57504 13655 ft 308 kts 304°
2026-05-07 15:54 49.77442 9.54776 13318 ft 306 kts 304°
2026-05-07 15:54 49.78638 9.52060 13001 ft 305 kts 304°
2026-05-07 15:55 49.79833 9.49350 12710 ft 304 kts 304°
2026-05-07 15:55 49.81029 9.46652 12363 ft 302 kts 304°
2026-05-07 15:55 49.82215 9.43967 12093 ft 301 kts 304°
2026-05-07 15:55 49.83379 9.41323 11911 ft 293 kts 304°
2026-05-07 15:56 49.84508 9.38757 11782 ft 283 kts 304°
2026-05-07 15:56 49.85593 9.36287 11647 ft 267 kts 304°
2026-05-07 15:56 49.86601 9.33971 11520 ft 254 kts 303°
2026-05-07 15:56 49.87534 9.31700 11355 ft 247 kts 304°
2026-05-07 15:57 49.88740 9.29920 11113 ft 244 kts 332°
2026-05-07 15:57 49.90366 9.29265 10829 ft 244 kts 360°
2026-05-07 15:57 49.92007 9.29894 10513 ft 247 kts 28°
2026-05-07 15:57 49.93289 9.31649 10217 ft 249 kts 55°
2026-05-07 15:58 49.93920 9.34147 9930 ft 251 kts 83°
2026-05-07 15:58 49.93757 9.36829 9620 ft 251 kts 105°
2026-05-07 15:58 49.93279 9.39438 9272 ft 252 kts 106°
2026-05-07 15:58 49.92785 9.42058 8963 ft 250 kts 106°
2026-05-07 15:59 49.92296 9.44611 9038 ft 250 kts 106°
2026-05-07 15:59 49.91794 9.47208 9055 ft 252 kts 106°
2026-05-07 15:59 49.91249 9.49789 9051 ft 252 kts 116°
2026-05-07 15:59 49.90182 9.51915 9052 ft 251 kts 143°
2026-05-07 16:00 49.88650 9.53067 9053 ft 249 kts 170°
2026-05-07 16:00 49.86944 9.53079 9056 ft 245 kts 196°
2026-05-07 16:00 49.85419 9.51970 9057 ft 242 kts 221°
2026-05-07 16:00 49.84359 9.49994 9058 ft 239 kts 246°
2026-05-07 16:01 49.83935 9.47541 9057 ft 236 kts 270°
2026-05-07 16:01 49.84165 9.45033 9056 ft 236 kts 285°
2026-05-07 16:01 49.84613 9.42583 9055 ft 236 kts 287°
2026-05-07 16:01 49.85104 9.40152 9055 ft 236 kts 288°
2026-05-07 16:02 49.85605 9.37726 9054 ft 237 kts 288°
2026-05-07 16:02 49.86104 9.35299 9054 ft 236 kts 288°
2026-05-07 16:02 49.86842 9.33049 9053 ft 235 kts 312°
2026-05-07 16:02 49.88179 9.31621 9054 ft 237 kts 341°
2026-05-07 16:03 49.89811 9.31390 9055 ft 240 kts
2026-05-07 16:03 49.91327 9.32460 9057 ft 244 kts 40°
2026-05-07 16:03 49.92297 9.34609 9056 ft 248 kts 71°
2026-05-07 16:03 49.92418 9.37253 9055 ft 250 kts 102°
2026-05-07 16:04 49.91925 9.39848 9059 ft 252 kts 107°
2026-05-07 16:04 49.91411 9.42407 9057 ft 252 kts 107°
2026-05-07 16:04 49.90884 9.45041 9056 ft 252 kts 107°
2026-05-07 16:04 49.90357 9.47631 9056 ft 252 kts 111°
2026-05-07 16:05 49.89398 9.49820 9053 ft 250 kts 142°
2026-05-07 16:05 49.87845 9.50933 9057 ft 247 kts 174°
2026-05-07 16:05 49.86168 9.50645 9057 ft 243 kts 206°
2026-05-07 16:05 49.84825 9.49117 8950 ft 243 kts 234°
2026-05-07 16:06 49.84172 9.46834 8784 ft 230 kts 264°
2026-05-07 16:06 49.84296 9.44388 8374 ft 230 kts 287°
2026-05-07 16:06 49.84751 9.42010 7998 ft 230 kts 288°
2026-05-07 16:06 49.85230 9.39643 7673 ft 229 kts 288°
2026-05-07 16:07 49.85708 9.37292 7362 ft 228 kts 288°
2026-05-07 16:07 49.86182 9.34950 7108 ft 226 kts 288°
2026-05-07 16:07 49.86666 9.32507 7052 ft 253 kts 287°
2026-05-07 16:07 49.87189 9.29822 7057 ft 264 kts 287°
2026-05-07 16:08 49.87716 9.27083 7055 ft 266 kts 287°
2026-05-07 16:08 49.88244 9.24332 7029 ft 265 kts 287°
2026-05-07 16:08 49.88768 9.21603 6671 ft 263 kts 287°
2026-05-07 16:08 49.89291 9.18892 6290 ft 261 kts 287°
2026-05-07 16:09 49.89811 9.16195 5894 ft 260 kts 287°
2026-05-07 16:09 49.90313 9.13546 5499 ft 258 kts 287°
2026-05-07 16:09 49.90816 9.10877 5104 ft 257 kts 287°
2026-05-07 16:09 49.91314 9.08231 5002 ft 257 kts 287°
2026-05-07 16:10 49.91818 9.05558 5010 ft 258 kts 287°
2026-05-07 16:10 49.92321 9.02877 5008 ft 259 kts 287°
2026-05-07 16:10 49.92827 9.00191 5009 ft 259 kts 287°
2026-05-07 16:10 49.93528 8.97631 5011 ft 258 kts 300°
2026-05-07 16:11 49.94593 8.95390 5008 ft 259 kts 313°
2026-05-07 16:11 49.95961 8.93577 5012 ft 260 kts 326°
2026-05-07 16:11 49.97568 8.92299 5011 ft 260 kts 339°
2026-05-07 16:11 49.99332 8.91629 5012 ft 262 kts 352°
2026-05-07 16:12 50.01144 8.91590 5007 ft 257 kts
2026-05-07 16:12 50.02836 8.92151 5002 ft 241 kts 18°
2026-05-07 16:12 50.04302 8.93316 5006 ft 237 kts 33°
2026-05-07 16:12 50.05514 8.95048 5009 ft 238 kts 50°
2026-05-07 16:13 50.06379 8.97248 5008 ft 240 kts 65°
2026-05-07 16:13 50.06831 8.99759 5010 ft 242 kts 82°
2026-05-07 16:13 50.06838 9.02343 5010 ft 243 kts 95°
2026-05-07 16:13 50.06752 9.04964 5007 ft 243 kts 88°
2026-05-07 16:14 50.06904 9.07575 5005 ft 242 kts 79°
2026-05-07 16:14 50.07287 9.10111 5006 ft 240 kts 71°
2026-05-07 16:14 50.07847 9.12557 5008 ft 240 kts 68°
2026-05-07 16:14 50.08418 9.15004 5006 ft 240 kts 68°
2026-05-07 16:15 50.08987 9.17449 5010 ft 240 kts 68°
2026-05-07 16:15 50.09681 9.19790 5010 ft 237 kts 49°
2026-05-07 16:15 50.10962 9.21294 5007 ft 231 kts 17°
2026-05-07 16:15 50.12533 9.21482 4968 ft 223 kts 344°
2026-05-07 16:16 50.13796 9.20352 4992 ft 204 kts 309°
2026-05-07 16:16 50.14405 9.18462 5001 ft 189 kts 287°
2026-05-07 16:16 50.14734 9.16560 5023 ft 176 kts 284°
2026-05-07 16:16 50.15016 9.14712 5012 ft 174 kts 284°
2026-05-07 16:17 50.15285 9.12883 5012 ft 170 kts 284°
2026-05-07 16:17 50.15527 9.11214 5012 ft 151 kts 284°
2026-05-07 16:17 50.15748 9.09666 5006 ft 143 kts 284°
2026-05-07 16:17 50.15959 9.08160 4970 ft 140 kts 284°
2026-05-07 16:18 50.16168 9.06667 4950 ft 142 kts 284°
2026-05-07 16:18 50.16374 9.05186 4911 ft 138 kts 283°
2026-05-07 16:18 50.16535 9.03693 5010 ft 141 kts 278°
2026-05-07 16:18 50.16441 9.02177 5112 ft 145 kts 248°
2026-05-07 16:19 50.15857 9.00875 5161 ft 147 kts 235°
2026-05-07 16:19 50.15239 8.99637 4952 ft 144 kts 235°
2026-05-07 16:19 50.14617 8.98398 4646 ft 145 kts 236°
2026-05-07 16:19 50.13995 8.97153 4350 ft 146 kts 236°
2026-05-07 16:20 50.13380 8.95921 4067 ft 146 kts 235°
2026-05-07 16:20 50.12781 8.94661 4003 ft 145 kts 243°
2026-05-07 16:20 50.12310 8.93276 4010 ft 145 kts 248°
2026-05-07 16:20 50.11906 8.91846 4009 ft 144 kts 251°
2026-05-07 16:21 50.11535 8.90398 4005 ft 144 kts 252°
2026-05-07 16:21 50.11178 8.88941 4007 ft 144 kts 253°
2026-05-07 16:21 50.10829 8.87483 4009 ft 144 kts 252°
2026-05-07 16:21 50.10481 8.86014 3974 ft 145 kts 252°
2026-05-07 16:22 50.10133 8.84543 3854 ft 144 kts 253°
2026-05-07 16:22 50.09787 8.83078 3682 ft 144 kts 253°
2026-05-07 16:22 50.09441 8.81608 3496 ft 145 kts 252°
2026-05-07 16:22 50.09094 8.80135 3296 ft 145 kts 253°
2026-05-07 16:23 50.08750 8.78680 3115 ft 145 kts 253°
2026-05-07 16:23 50.08402 8.77205 2915 ft 145 kts 252°
2026-05-07 16:23 50.08053 8.75726 2726 ft 145 kts 252°
2026-05-07 16:23 50.07703 8.74249 2520 ft 145 kts 252°
2026-05-07 16:24 50.07354 8.72773 2317 ft 145 kts 251°
2026-05-07 16:24 50.07005 8.71296 2116 ft 146 kts 252°
2026-05-07 16:24 50.06654 8.69816 1916 ft 146 kts 252°
2026-05-07 16:24 50.06304 8.68333 1705 ft 146 kts 250°
2026-05-07 16:25 50.05955 8.66879 1531 ft 146 kts 250°
2026-05-07 16:25 50.05599 8.65395 1309 ft 145 kts 251°
2026-05-07 16:25 50.05250 8.63939 1122 ft 142 kts 250°
2026-05-07 16:25 50.04920 8.62520 956 ft 138 kts 250°
2026-05-07 16:26 50.04593 8.61116 765 ft 138 kts 249°
2026-05-07 16:26 50.04262 8.59726 560 ft 136 kts 249°
2026-05-07 16:26 50.03935 8.58360 399 ft 134 kts 248°
2026-05-07 16:26 50.03718 8.57468 363 ft 124 kts 246°
2026-05-07 16:27 50.03449 8.56316 353 ft 44 kts 249°
2026-05-07 16:27 50.03347 8.55900 352 ft 39 kts 250°
2026-05-07 16:27 50.03313 8.55518 347 ft 34 kts 277°
2026-05-07 16:27 50.03343 8.55237 342 ft 20 kts 279°
2026-05-07 16:28 50.03364 8.55084 350 ft 12 kts 302°
2026-05-07 16:28 50.03374 8.54979 349 ft 10 kts 251°
2026-05-07 16:28 50.03342 8.54845 337 ft 16 kts 250°
2026-05-07 16:28 50.03300 8.54668 336 ft 19 kts 250°
2026-05-07 16:29 50.03276 8.54554 336 ft 0 kts 266°
2026-05-07 16:29 50.03280 8.54516 335 ft 6 kts 291°
2026-05-07 16:29 50.03347 8.54461 335 ft 12 kts 339°
2026-05-07 16:29 50.03419 8.54419 353 ft 13 kts 339°
2026-05-07 16:30 50.03505 8.54370 346 ft 14 kts 340°
2026-05-07 16:30 50.03599 8.54316 347 ft 14 kts 340°
2026-05-07 16:30 50.03652 8.54317 350 ft 0 kts 33°
2026-05-07 16:31 50.03657 8.54326 348 ft 4 kts 46°
2026-05-07 16:31 50.03674 8.54384 346 ft 6 kts 69°
2026-05-07 16:32 50.03700 8.54492 349 ft 12 kts 70°
2026-05-07 16:32 50.03725 8.54596 353 ft 9 kts 70°
2026-05-07 16:32 50.03750 8.54703 350 ft 15 kts 70°
2026-05-07 16:32 50.03785 8.54846 352 ft 13 kts 70°
2026-05-07 16:33 50.03813 8.54964 352 ft 11 kts 70°
2026-05-07 16:33 50.03849 8.55113 349 ft 15 kts 70°
2026-05-07 16:33 50.03883 8.55260 355 ft 14 kts 69°
2026-05-07 16:33 50.03916 8.55397 353 ft 14 kts 70°
2026-05-07 16:34 50.03962 8.55589 354 ft 21 kts 69°
2026-05-07 16:34 50.04013 8.55803 358 ft 21 kts 70°
2026-05-07 16:34 50.04064 8.56016 353 ft 21 kts 70°
2026-05-07 16:34 50.04114 8.56222 357 ft 20 kts 69°
2026-05-07 16:35 50.04164 8.56435 357 ft 21 kts 70°
2026-05-07 16:35 50.04214 8.56642 361 ft 20 kts 70°
2026-05-07 16:35 50.04251 8.56783 361 ft 11 kts 54°
2026-05-07 16:35 50.04313 8.56818 360 ft 9 kts 11°
2026-05-07 16:36 50.04380 8.56837 360 ft 12 kts
2026-05-07 16:36 50.04457 8.56857 359 ft 11 kts
2026-05-07 16:36 50.04507 8.56866 359 ft 5 kts 335°
2026-05-07 16:36 50.04524 8.56812 361 ft 8 kts 292°
2026-05-07 16:37 50.04540 8.56756 360 ft 2 kts 294°
2026-05-07 16:37 50.04544 8.56742 362 ft 1 kts 294°
2026-05-07 16:37 50.04545 8.56740 362 ft 0 kts 294°